This is the latest recevied weather packets stored in our database for station/object IR9AK-10. If no packets are shown the sender has not sent any weather packets the latest 1 day(s).
| Time | Temp. | Humidity | Pressure | Rain* | Wind** | Luminosity | Snow |
|---|---|---|---|---|---|---|---|
| 1778081301 | 24.44° C | 45% | 1057.7 hPa | - | - | - | - |
| 1778079640 | 23.89° C | 41% | 1057.7 hPa | - | - | - | - |
| 1778077243 | 25° C | 43% | 1057.4 hPa | - | - | - | - |
| 1778073647 | 25.56° C | 38% | 1057.2 hPa | - | - | - | - |
| 1778072072 | 25.56° C | 38% | 1057.6 hPa | - | - | - | - |
| 1778070874 | 25° C | 37% | 1057.6 hPa | - | - | - | - |
| 1778066080 | 25° C | 40% | 1058.2 hPa | - | - | - | - |
| 1778065482 | 25.56° C | 38% | 1058.2 hPa | - | - | - | - |
| 1778064882 | 25° C | 39% | 1058.3 hPa | - | - | - | - |
| 1778064282 | 24.44° C | 42% | 1058.3 hPa | - | - | - | - |
| 1778063085 | 25° C | 42% | 1058.6 hPa | - | - | - | - |
| 1778060688 | 25° C | 45% | 1058.7 hPa | - | - | - | - |
| 1778060088 | 25.56° C | 46% | 1058.8 hPa | - | - | - | - |
| 1778059489 | 25.56° C | 45% | 1058.9 hPa | - | - | - | - |
| 1778058890 | 25° C | 45% | 1059 hPa | - | - | - | - |
| 1778057693 | 23.89° C | 47% | 1059.1 hPa | - | - | - | - |
| 1778055897 | 22.78° C | 52% | 1059.1 hPa | - | - | - | - |
| 1778055297 | 22.22° C | 50% | 1059 hPa | - | - | - | - |
| 1778054698 | 23.33° C | 49% | 1058.8 hPa | - | - | - | - |
| 1778053501 | 23.89° C | 46% | 1058.9 hPa | - | - | - | - |
| 1778051702 | 23.33° C | 47% | 1059.2 hPa | - | - | - | - |
| 1778049905 | 23.33° C | 42% | 1059.2 hPa | - | - | - | - |
| 1778048706 | 23.33° C | 44% | 1059.4 hPa | - | - | - | - |
| 1778047508 | 22.78° C | 46% | 1059.3 hPa | - | - | - | - |
| 1778046910 | 22.78° C | 45% | 1059.1 hPa | - | - | - | - |
* Rain since midnight (hover to see other rain measurements)
** Current wind speed in m/s (hover to see current wind gust speed)